Location: Buckeye Ditch
(40.9104°N, 122.9517°W)
Time: 18:34:15
(UTC+00:00)

BlueWalker 3 - Pass Details

Date: 29 June 2024
Orbit: 480 x 491 km, 53.2° (Epoch: 23 July)

Event Time Altitude Azimuth Distance (km) Brightness Sun altitude
Rises 04:36:26 0° 300° (WNW) 2,544 7.6 -8.2°
Reaches altitude 10° 04:39:43 10° 331° (NNW) 1,662 5.9 -8.7°
Maximum altitude 04:41:23 13° 357° (N) 1,511 5.0 -8.9°
Drops below altitude 10° 04:43:03 10° 24° (NNE) 1,660 4.8 -9.2°
Sets 04:46:20 0° 55° (NE) 2,538 5.4 -9.6°
